Date String (YYYY-MM-DD hh:mm:ss) UTC,Instrument flags,Ambient pressure (hPa),Sample flow (lpm),Bypass flow (lpm),Sample temperature (°C),Ambient temperature (°C),ASC tube jacket temperature (°C),LED temperature (°C),Box temperature (°C),Sample RH (%),Span deviation,Mass concentration (μg/m³),Mass concentration (μg/m³),Mass concentration (μg/m³)
DateTimeUTC,F1_M11,P_M11,Q1_M11,Q2_M11,T1_M11,T2_M11,T3_M11,T4_M11,T5_M11,U1_M11,ZSPAN_M11,X0_M11,X2_M11,X1_M11
2022-09-08 20:00:00,,0822.9,4.98,0.00,29.5,26.7,00.0,38.1,31.3,14.3,0001.6,0017.27,0010.22,0009.11
2022-09-08 20:01:00,,0822.9,5.01,0.00,29.5,26.9,00.0,38.1,31.2,14.4,0001.8,0017.01,0010.20,0009.08
2022-09-08 20:02:00,,0822.9,5.00,0.00,29.4,27.2,00.0,38.1,31.2,14.4,0002.2,0016.66,0010.14,0009.05
2022-09-08 20:03:00,,0822.9,5.02,0.00,29.4,27.6,00.0,38.1,31.3,14.8,0002.7,0016.38,0010.13,0009.03
2022-09-08 20:04:00,,0823.0,5.00,0.00,29.5,27.8,00.0,38.1,31.3,15.2,0003.2,0017.96,0010.14,0009.03
2022-09-08 20:05:00,,0822.9,5.00,0.00,29.5,28.1,00.0,38.1,31.4,15.5,0003.1,0020.02,0010.23,0009.03
2022-09-08 20:06:00,,0822.9,4.99,0.00,29.5,28.3,00.0,38.1,31.5,15.3,0003.2,0019.85,0010.24,0009.04
2022-09-08 20:07:00,,0822.9,4.99,0.00,29.6,27.6,00.0,38.2,31.4,14.7,0003.2,0019.79,0010.25,0009.06
2022-09-08 20:08:00,,0823.0,5.00,0.00,29.5,26.5,00.0,38.1,31.2,17.1,0003.3,0020.03,0010.26,0009.09
2022-09-08 20:09:00,,0822.9,5.00,0.00,29.5,26.5,00.0,38.1,31.2,17.7,0003.7,0020.07,0010.34,0009.18
2022-09-08 20:10:00,,0822.8,5.00,0.00,29.4,26.8,00.0,38.1,31.2,20.6,0003.8,0020.19,0010.45,0009.28
2022-09-08 20:11:00,,0822.8,5.01,0.00,29.4,27.1,00.0,38.1,31.2,19.9,0004.0,0020.50,0010.59,0009.40
2022-09-08 20:12:00,,0822.8,5.00,0.00,29.4,27.4,00.0,38.1,31.2,15.7,0003.8,0020.78,0010.63,0009.45
2022-09-08 20:13:00,,0822.8,5.00,0.00,29.4,27.7,00.0,38.1,31.3,15.0,0003.3,0021.30,0010.65,0009.47
2022-09-08 20:14:00,,0822.8,5.00,0.00,29.4,28.0,00.0,38.1,31.4,14.4,0002.3,0021.57,0010.66,0009.50
2022-09-08 20:15:00,,0822.8,5.00,0.00,29.5,28.2,00.0,38.1,31.4,15.3,0001.9,0019.56,0010.61,0009.51
2022-09-08 20:16:00,,0822.8,4.99,0.00,29.5,28.2,00.0,38.1,31.5,14.0,0002.4,0017.84,0010.51,0009.53
2022-09-08 20:17:00,,0822.7,5.01,0.00,29.5,27.2,00.0,38.1,31.3,15.2,0002.1,0018.14,0010.55,0009.56
2022-09-08 20:18:00,,0822.7,4.99,0.00,29.4,26.5,00.0,38.1,31.2,14.6,0001.4,0018.40,0010.60,0009.59
2022-09-08 20:19:00,,0822.7,5.00,0.00,29.4,26.6,00.0,38.1,31.2,13.8,0001.6,0018.18,0010.59,0009.58
2022-09-08 20:20:00,,0822.6,4.99,0.00,29.4,26.9,00.0,38.0,31.0,13.0,0001.8,0017.96,0010.49,0009.47
2022-09-08 20:21:00,,0822.6,5.01,0.00,29.4,27.2,00.0,38.0,31.1,12.9,0002.0,0017.89,0010.34,0009.32
2022-09-08 20:22:00,,0822.6,5.00,0.00,29.4,27.5,00.0,38.0,31.2,13.8,0001.6,0017.69,0010.19,0009.14
2022-09-08 20:23:00,,0822.5,5.01,0.00,29.4,27.8,00.0,38.1,31.3,13.8,0001.5,0017.25,0010.06,0009.02
2022-09-08 20:24:00,,0822.4,4.98,0.00,29.4,28.0,00.0,38.1,31.3,13.1,0002.2,0016.59,0010.00,0008.94
2022-09-08 20:25:00,,0822.4,5.00,0.00,29.5,28.2,00.0,38.1,31.4,13.2,0002.8,0015.60,0009.89,0008.85
2022-09-08 20:26:00,,0822.4,4.99,0.00,29.5,27.8,00.0,38.1,31.4,12.6,0002.7,0015.67,0009.84,0008.80
2022-09-08 20:27:00,,0822.4,5.00,0.00,29.5,26.6,00.0,38.1,31.2,12.4,0002.5,0016.19,0009.80,0008.74
2022-09-08 20:28:00,,0822.4,5.00,0.00,29.4,26.4,00.0,38.1,31.2,13.4,0002.6,0016.53,0009.70,0008.66
2022-09-08 20:29:00,,0822.3,5.00,0.00,29.4,26.7,00.0,38.0,31.1,13.4,0002.7,0016.35,0009.56,0008.57
2022-09-08 20:30:00,,0822.3,5.01,0.00,29.3,27.0,00.0,38.0,31.1,12.7,0002.5,0016.12,0009.47,0008.52
2022-09-08 20:31:00,,0822.2,5.00,0.00,29.3,27.3,00.0,38.0,31.2,12.3,0002.1,0016.59,0009.46,0008.53
2022-09-08 20:32:00,,0822.2,5.00,0.00,29.4,27.6,00.0,38.0,31.2,13.9,0002.4,0017.15,0009.47,0008.54
2022-09-08 20:33:00,,0822.2,5.01,0.00,29.4,27.9,00.0,38.0,31.3,14.8,0002.4,0016.99,0009.45,0008.55
2022-09-08 20:34:00,,0822.1,4.99,0.00,29.5,28.1,00.0,38.1,31.4,14.7,0002.2,0017.40,0009.50,0008.58
2022-09-08 20:35:00,,0822.1,5.01,0.00,29.5,28.3,00.0,38.1,31.4,14.8,0002.0,0018.16,0009.54,0008.62
2022-09-08 20:36:00,,0822.0,4.99,0.00,29.5,27.4,00.0,38.1,31.4,13.9,0002.0,0018.73,0009.58,0008.66
2022-09-08 20:37:00,,0821.9,5.00,0.00,29.5,26.6,00.0,38.1,31.3,12.9,0002.4,0018.67,0009.66,0008.72
2022-09-08 20:38:00,,0822.0,5.00,0.00,29.5,26.8,00.0,38.1,31.3,12.2,0002.7,0017.89,0009.72,0008.77
2022-09-08 20:39:00,,0822.0,5.01,0.00,29.4,27.0,00.0,38.0,31.2,13.0,0002.6,0017.11,0009.77,0008.83
2022-09-08 20:40:00,,0821.9,5.00,0.00,29.4,27.3,00.0,38.0,31.1,15.5,0002.8,0016.50,0009.83,0008.88
2022-09-08 20:41:00,,0822.0,5.00,0.00,29.4,27.6,00.0,38.0,31.2,13.5,0002.9,0016.91,0009.94,0008.91
2022-09-08 20:42:00,,0822.1,5.01,0.00,29.4,27.9,00.0,38.0,31.3,14.6,0003.0,0017.70,0009.96,0008.94
2022-09-08 20:43:00,,0822.0,4.99,0.00,29.5,28.2,00.0,38.0,31.4,14.9,0002.9,0017.24,0009.97,0008.96
2022-09-08 20:44:00,,0822.0,5.00,0.00,29.5,28.3,00.0,38.1,31.4,13.8,0002.7,0017.12,0009.99,0009.01
2022-09-08 20:45:00,,0822.0,5.00,0.00,29.6,27.6,00.0,38.1,31.4,14.4,0002.5,0018.36,0010.05,0009.03
2022-09-08 20:46:00,,0821.9,5.00,0.00,29.5,26.7,00.0,38.1,31.3,14.8,0002.3,0017.81,0010.01,0009.03
2022-09-08 20:47:00,,0821.8,5.00,0.00,29.5,26.8,00.0,38.1,31.4,15.9,0002.1,0017.37,0009.99,0009.04
2022-09-08 20:48:00,,0821.9,5.01,0.00,29.5,27.1,00.0,38.1,31.3,15.3,0002.2,0017.57,0009.90,0009.00
2022-09-08 20:49:00,,0821.8,4.99,0.00,29.5,27.5,00.0,38.1,31.2,15.1,0002.1,0018.10,0009.86,0008.96
2022-09-08 20:50:00,,0821.8,5.00,0.00,29.5,27.8,00.0,38.1,31.3,15.6,0001.8,0018.26,0009.84,0008.92
2022-09-08 20:51:00,,0821.8,5.01,0.00,29.5,28.1,00.0,38.1,31.4,15.8,0001.9,0018.32,0009.85,0008.89
2022-09-08 20:52:00,,0821.8,4.98,0.00,29.6,28.3,00.0,38.1,31.5,15.8,0001.8,0018.22,0009.84,0008.90
2022-09-08 20:53:00,,0821.8,5.00,0.00,29.6,27.6,00.0,38.1,31.4,15.4,0002.1,0017.31,0009.82,0008.88
2022-09-08 20:54:00,,0821.8,5.01,0.00,29.5,26.7,00.0,38.1,31.3,15.6,0001.8,0016.87,0009.80,0008.86
2022-09-08 20:55:00,,0821.8,5.00,0.00,29.5,26.9,00.0,38.1,31.4,14.8,0002.0,0016.90,0009.80,0008.83
2022-09-08 20:56:00,,0821.8,5.01,0.00,29.5,27.2,00.0,38.1,31.3,14.5,0002.5,0015.42,0009.72,0008.82
2022-09-08 20:57:00,,0822.0,5.00,0.00,29.5,27.5,00.0,38.1,31.2,14.6,0002.5,0015.23,0009.72,0008.80
2022-09-08 20:58:00,,0822.0,5.01,0.00,29.5,27.8,00.0,38.1,31.3,13.4,0002.2,0016.90,0009.71,0008.78
2022-09-08 20:59:00,,0822.0,5.00,0.00,29.5,28.0,00.0,38.1,31.4,13.9,0001.9,0017.60,0009.75,0008.78
